When you browse on this site, cookies collect data to enhance your experience and personalize the content and advertising you see.
Visit our Privacy Policy to learn more. By continuing to use the site, you agree to this use of cookies and data.
  • în România
  • Lista ţărilor
  • Pe 7 zile
  • Temperatura apei
  • Meteo pe hartă
  • Widget-uri
  • user-avatar
    Intrare

    Meteo pe oră la Graz

    Astăzi, 15 Septembrie, Duminică

    Timp Temperatura Precipitaţii Vânt Presiune Umiditate
    00:00 +15°C° 0 mm 0 m/s 733 mmHg 88%
    01:00 +15°C° 0 mm 0 m/s 733 mmHg 87%
    02:00 +15°C° 0 mm 0 m/s 733 mmHg 89%
    03:00 +14°C° 0 mm 0 m/s 732 mmHg 90%
    04:00 +13°C° 0 mm 0 m/s 732 mmHg 92%
    05:00 +14°C° 0 mm 0 m/s 732 mmHg 90%
    06:00 +14°C° 0 mm 0 m/s 732 mmHg 88%
    07:00 +15°C° 0 mm 0 m/s 732 mmHg 86%
    08:00 +17°C° 0 mm 0 m/s 732 mmHg 79%
    09:00 +21°C° 0 mm 1 m/s 732 mmHg 72%
    10:00 +23°C° 0 mm 1 m/s 732 mmHg 65%
    11:00 +24°C° 0 mm 1 m/s 731 mmHg 61%
    12:00 +26°C° 0 mm 1 m/s 731 mmHg 58%
    13:00 +27°C° 0 mm 1 m/s 731 mmHg 54%
    14:00 +27°C° 0 mm 1 m/s 730 mmHg 56%
    15:00 +26°C° 0 mm 1 m/s 730 mmHg 59%
    16:00 +26°C° 0 mm 1 m/s 729 mmHg 61%
    17:00 +24°C° 0 mm 1 m/s 729 mmHg 70%
    18:00 +22°C° 0 mm 1 m/s 729 mmHg 78%
    19:00 +17°C° 0 mm 0 m/s 729 mmHg 87%
    20:00 +19°C° 0 mm 1 m/s 729 mmHg 88%
    21:00 +19°C° 0 mm 1 m/s 729 mmHg 88%
    22:00 +18°C° 0 mm 1 m/s 728 mmHg 88%
    23:00 +18°C° 0 mm 1 m/s 728 mmHg 89%

    Mâine, 16 Septembrie, Luni

    Timp Temperatura Precipitaţii Vânt Presiune Umiditate
    00:00 +18°C° 0 mm 1 m/s 728 mmHg 89%
    01:00 +18°C° 0 mm 1 m/s 728 mmHg 89%
    02:00 +18°C° 0 mm 1 m/s 728 mmHg 89%
    03:00 +16°C° 0 mm 1 m/s 728 mmHg 89%
    04:00 +16°C° 0 mm 1 m/s 727 mmHg 90%
    05:00 +18°C° 0 mm 1 m/s 727 mmHg 87%
    06:00 +18°C° 0 mm 1 m/s 727 mmHg 85%
    07:00 +19°C° 0 mm 1 m/s 727 mmHg 82%
    08:00 +22°C° 0 mm 1 m/s 727 mmHg 75%
    09:00 +24°C° 0 mm 1 m/s 728 mmHg 67%
    10:00 +26°C° 0 mm 1 m/s 728 mmHg 59%
    11:00 +27°C° 0 mm 1 m/s 727 mmHg 57%
    12:00 +27°C° 0 mm 1 m/s 727 mmHg 55%
    13:00 +28°C° 0 mm 1 m/s 726 mmHg 53%
    14:00 +28°C° 0.1 mm 1 m/s 726 mmHg 57%
    15:00 +27°C° 0.1 mm 1 m/s 726 mmHg 61%
    16:00 +26°C° 0.1 mm 1 m/s 725 mmHg 65%
    17:00 +24°C° 0.4 mm 1 m/s 725 mmHg 72%
    18:00 +21°C° 0.4 mm 0 m/s 725 mmHg 80%
    19:00 +19°C° 0.4 mm 0 m/s 725 mmHg 87%
    20:00 +18°C° 0.1 mm 0 m/s 725 mmHg 88%
    21:00 +20°C° 0.1 mm 1 m/s 725 mmHg 88%
    22:00 +19°C° 0.1 mm 1 m/s 725 mmHg 89%
    23:00 +19°C° 0.1 mm 1 m/s 725 mmHg 90%

    Poimâine, 17 Septembrie, Marţi

    Timp Temperatura Precipitaţii Vânt Presiune Umiditate
    00:00 +19°C° 0.1 mm 1 m/s 725 mmHg 90%
    01:00 +18°C° 0.1 mm 1 m/s 724 mmHg 90%
    02:00 +18°C° 0 mm 1 m/s 724 mmHg 90%
    03:00 +18°C° 0 mm 1 m/s 724 mmHg 89%
    04:00 +18°C° 0 mm 1 m/s 724 mmHg 89%
    05:00 +18°C° 0 mm 1 m/s 724 mmHg 88%
    06:00 +19°C° 0 mm 1 m/s 724 mmHg 88%
    07:00 +19°C° 0 mm 1 m/s 724 mmHg 87%
    08:00 +21°C° 0.1 mm 1 m/s 724 mmHg 80%
    09:00 +21°C° 0.1 mm 0 m/s 724 mmHg 74%
    10:00 +23°C° 0.1 mm 0 m/s 725 mmHg 67%
    11:00 +25°C° 0.5 mm 1 m/s 724 mmHg 67%
    12:00 +25°C° 0.5 mm 1 m/s 724 mmHg 68%
    13:00 +25°C° 0.5 mm 1 m/s 724 mmHg 68%
    14:00 +25°C° 1.1 mm 1 m/s 724 mmHg 72%
    15:00 +24°C° 1.1 mm 1 m/s 723 mmHg 76%
    16:00 +24°C° 1.1 mm 1 m/s 723 mmHg 80%
    17:00 +22°C° 0.3 mm 1 m/s 723 mmHg 83%
    18:00 +20°C° 0.3 mm 1 m/s 723 mmHg 86%
    19:00 +19°C° 0.3 mm 1 m/s 723 mmHg 89%
    20:00 +18°C° 0 mm 1 m/s 724 mmHg 90%
    21:00 +18°C° 0 mm 1 m/s 724 mmHg 90%
    22:00 +16°C° 0 mm 1 m/s 725 mmHg 90%
    23:00 +16°C° 0 mm 1 m/s 725 mmHg 91%

    18 Septembrie, Miercuri

    Timp Temperatura Precipitaţii Vânt Presiune Umiditate
    00:00 +15°C° 0 mm 1 m/s 725 mmHg 91%
    01:00 +15°C° 0 mm 1 m/s 725 mmHg 92%
    02:00 +15°C° 0 mm 1 m/s 725 mmHg 91%
    03:00 +14°C° 0 mm 1 m/s 726 mmHg 91%
    04:00 +13°C° 0 mm 1 m/s 726 mmHg 90%
    05:00 +13°C° 0.1 mm 1 m/s 726 mmHg 90%
    06:00 +13°C° 0.1 mm 1 m/s 726 mmHg 90%
    07:00 +12°C° 0.1 mm 1 m/s 727 mmHg 90%
    08:00 +12°C° 0 mm 1 m/s 727 mmHg 88%
    09:00 +12°C° 0 mm 2 m/s 727 mmHg 87%
    10:00 +12°C° 0 mm 2 m/s 728 mmHg 85%
    11:00 +13°C° 0 mm 2 m/s 728 mmHg 82%
    12:00 +13°C° 0 mm 1 m/s 728 mmHg 79%
    13:00 +14°C° 0 mm 1 m/s 727 mmHg 77%
    14:00 +14°C° 0 mm 1 m/s 727 mmHg 76%
    15:00 +14°C° 0 mm 1 m/s 727 mmHg 75%
    16:00 +14°C° 0 mm 1 m/s 727 mmHg 75%
    17:00 +13°C° 0 mm 1 m/s 727 mmHg 80%
    18:00 +12°C° 0 mm 1 m/s 727 mmHg 85%
    19:00 +10°C° 0 mm 0 m/s 727 mmHg 89%
    20:00 +10°C° 0 mm 0 m/s 727 mmHg 89%
    21:00 +10°C° 0 mm 0 m/s 728 mmHg 88%
    22:00 +10°C° 0 mm 0 m/s 728 mmHg 87%
    23:00 +10°C° 0 mm 0 m/s 728 mmHg 86%

    19 Septembrie, Joi

    Timp Temperatura Precipitaţii Vânt Presiune Umiditate
    00:00 +10°C° 0 mm 0 m/s 728 mmHg 85%
    01:00 +10°C° 0 mm 0 m/s 728 mmHg 84%
    02:00 +10°C° 0 mm 0 m/s 728 mmHg 84%
    03:00 +10°C° 0 mm 0 m/s 728 mmHg 83%
    04:00 +10°C° 0 mm 0 m/s 728 mmHg 82%
    05:00 +10°C° 0 mm 0 m/s 728 mmHg 79%
    06:00 +10°C° 0 mm 0 m/s 728 mmHg 76%
    07:00 +10°C° 0 mm 0 m/s 728 mmHg 73%
    08:00 +11°C° 0 mm 0 m/s 728 mmHg 68%
    09:00 +13°C° 0 mm 1 m/s 728 mmHg 64%
    10:00 +13°C° 0 mm 1 m/s 729 mmHg 59%
    11:00 +14°C° 0 mm 1 m/s 729 mmHg 56%
    12:00 +15°C° 0 mm 1 m/s 728 mmHg 53%
    13:00 +16°C° 0 mm 1 m/s 728 mmHg 51%
    14:00 +16°C° 0 mm 1 m/s 728 mmHg 53%
    15:00 +15°C° 0 mm 2 m/s 728 mmHg 54%
    16:00 +15°C° 0 mm 2 m/s 728 mmHg 56%
    17:00 +13°C° 0 mm 1 m/s 728 mmHg 62%
    18:00 +12°C° 0 mm 1 m/s 729 mmHg 69%
    19:00 +10°C° 0 mm 1 m/s 729 mmHg 75%
    20:00 +10°C° 0 mm 1 m/s 730 mmHg 76%
    21:00 +9°C° 0 mm 1 m/s 730 mmHg 77%
    22:00 +8°C° 0 mm 1 m/s 731 mmHg 79%
    23:00 +8°C° 0 mm 1 m/s 731 mmHg 80%

    20 Septembrie, Vineri

    Timp Temperatura Precipitaţii Vânt Presiune Umiditate
    00:00 +7°C° 0 mm 2 m/s 731 mmHg 81%
    01:00 +6°C° 0 mm 2 m/s 731 mmHg 82%
    02:00 +6°C° 0 mm 2 m/s 731 mmHg 83%
    03:00 +6°C° 0 mm 2 m/s 731 mmHg 84%
    04:00 +5°C° 0 mm 2 m/s 731 mmHg 85%
    05:00 +6°C° 0 mm 2 m/s 731 mmHg 83%
    06:00 +6°C° 0 mm 2 m/s 731 mmHg 80%
    07:00 +7°C° 0 mm 2 m/s 731 mmHg 78%
    08:00 +9°C° 0 mm 2 m/s 732 mmHg 66%
    09:00 +12°C° 0 mm 2 m/s 732 mmHg 55%
    10:00 +13°C° 0 mm 3 m/s 732 mmHg 43%
    11:00 +13°C° 0 mm 3 m/s 732 mmHg 40%
    12:00 +14°C° 0 mm 3 m/s 732 mmHg 36%
    13:00 +16°C° 0 mm 3 m/s 731 mmHg 33%
    14:00 +16°C° 0 mm 3 m/s 731 mmHg 34%
    15:00 +14°C° 0 mm 3 m/s 731 mmHg 35%
    16:00 +14°C° 0 mm 3 m/s 731 mmHg 36%
    17:00 +13°C° 0 mm 2 m/s 731 mmHg 44%
    18:00 +10°C° 0 mm 1 m/s 731 mmHg 53%
    19:00 +8°C° 0 mm 1 m/s 732 mmHg 61%
    20:00 +7°C° 0 mm 1 m/s 732 mmHg 63%
    21:00 +7°C° 0 mm 1 m/s 732 mmHg 66%
    22:00 +6°C° 0 mm 1 m/s 733 mmHg 68%
    23:00 +6°C° 0 mm 1 m/s 733 mmHg 69%
    Arată mai mult